[[{"header":{"parameterUnit":"m.s-1","parameterCategory":2,"la1":30.2991,"la2":30.254,"lo1":-89.0895,"lo2":-89.0444,"dy":0.0017,"dx":0.0017,"nx":28,"ny":28,"refTime":"2025-05-31T09:00:00:Z","depth":"0","parameterNumber":2,"parameterNumberName":"U-component_of_CURRENTS"},"data":[0,0,0,0,0,0,0,0,0,0,0,0,0,0,0,0,0,0,0,0,0,0,0,0,0,0,0,0,0,0,0,0,0,0,0,0,0,0,0,0,0,0,0,0,0,0,0,0,0,0,0,0,0,0,0,0,0,0,-0.2657,-0.2659,0,-0.2873,-0.2877,-0.288,-0.3109,-0.3111,-0.3113,-0.3116,-0.3311,-0.3314,-0.3317,0,0,0,0,0,0,0,0,0,0,0,0,0,-0.2519,-0.2521,-0.2657,-0.2659,-0.2661,-0.2873,-0.2877,-0.2881,-0.3108,-0.3111,-0.3114,-0.3117,-0.331,-0.3313,-0.3317,0,0,0,0,0,0,0,0,0,0,0,0,0,-0.2651,-0.2521,-0.2657,-0.2793,-0.2806,-0.2872,-0.2877,-0.2882,-0.3108,-0.3111,-0.3115,-0.3118,-0.3308,-0.3313,-0.3317,-0.3276,0,0,-0.3331,-0.3333,0,0,0,0,0,0,0,0,-0.2643,-0.2657,-0.2771,-0.2783,-0.2799,-0.2959,-0.2899,-0.3009,-0.3107,-0.3004,-0.3116,-0.312,-0.3182,-0.3197,-0.3245,-0.3285,-0.3294,-0.3332,-0.3334,-0.3336,-0.3338,0,0,0,0,0,0,0,-0.2633,-0.2649,-0.2753,-0.2772,-0.2789,-0.2869,-0.2892,-0.2923,-0.3078,-0.3013,-0.3028,-0.3035,-0.3191,-0.324,-0.325,-0.3297,-0.3332,-0.3336,-0.3338,-0.334,-0.3334,-0.3331,0,0,0,0,0,0,-0.2579,-0.2639,-0.2746,-0.2758,-0.2717,-0.2867,-0.2894,-0.2912,-0.3079,-0.3105,-0.3032,-0.3045,-0.323,-0.3245,-0.3258,-0.322,-0.3336,-0.3341,-0.3343,-0.3337,-0.3333,-0.333,0,0,0,0,0,0,-0.2575,-0.2587,-0.2737,-0.2696,-0.2719,-0.2864,-0.2885,-0.2914,-0.2963,-0.3091,-0.312,-0.3048,-0.3234,-0.3252,-0.3288,-0.3229,-0.3343,-0.3347,-0.334,-0.3336,-0.3332,-0.3141,0,0,0,0,0,0,-0.2571,-0.2584,-0.2586,-0.2692,-0.2719,-0.2742,-0.2881,-0.2916,-0.2957,-0.2977,-0.3113,-0.3137,-0.3238,-0.328,-0.3292,-0.3237,-0.335,-0.3344,-0.3338,-0.3333,-0.3151,-0.3131,-0.3113,0,0,0,0,0,-0.2565,-0.2561,-0.2585,-0.2598,-0.2715,-0.2738,-0.2759,-0.2882,-0.2953,-0.2946,-0.3059,-0.3133,-0.3254,-0.3282,-0.3297,-0.3241,-0.3347,-0.334,-0.3334,-0.3159,-0.3135,-0.3114,0,0,0,0,0,0,-0.2519,-0.2585,-0.2615,-0.2635,-0.2658,-0.2773,-0.2793,-0.2852,-0.2937,-0.2972,-0.3102,-0.313,-0.3138,-0.3204,-0.3231,-0.3221,-0.3307,-0.3304,-0.317,-0.3147,-0.3129,-0.3178,-0.3354,0,0,0,0,0,-0.2492,-0.2503,-0.2557,-0.2565,-0.2574,-0.2668,-0.2697,-0.2762,-0.2844,-0.289,-0.2971,-0.306,-0.3117,-0.3147,-0.3204,-0.319,-0.3227,-0.3161,-0.3142,-0.3126,-0.3174,-0.3178,-0.3165,-0.3309,-0.3309,-0.3309,0,0,-0.2476,-0.2511,-0.2519,-0.2552,-0.26,-0.2617,-0.2699,-0.2722,-0.2748,-0.2888,-0.294,-0.299,-0.3098,-0.3106,-0.3112,-0.3157,-0.3076,-0.3117,-0.3103,-0.3162,-0.317,-0.3157,-0.3145,-0.3305,-0.3305,-0.3306,0,0,-0.2442,-0.247,-0.2467,-0.2481,-0.2512,-0.2564,-0.2549,-0.2619,-0.2662,-0.2679,-0.2799,-0.281,-0.2889,-0.2956,-0.3005,-0.2903,-0.2974,-0.2904,-0.2856,-0.2855,-0.2845,-0.2836,-0.2746,-0.2731,-0.2898,-0.2897,-0.2897,0,-0.2421,-0.2438,-0.2461,-0.2464,-0.2492,-0.2528,-0.2538,-0.2566,-0.2635,-0.2663,-0.2669,-0.2784,-0.2824,-0.2887,-0.2857,-0.286,-0.2865,-0.2931,-0.2832,-0.2825,-0.282,-0.2731,-0.2718,-0.2887,-0.2888,-0.2889,-0.289,0,-0.239,-0.2408,-0.2402,-0.243,-0.2445,-0.2448,-0.2482,-0.2482,-0.251,-0.2552,-0.2571,-0.2617,-0.271,-0.267,-0.2742,-0.2727,-0.2734,-0.28,-0.2891,-0.2794,-0.2704,-0.2694,-0.2873,-0.2876,-0.2879,-0.2882,0,0,-0.2342,-0.2378,-0.2378,-0.2409,-0.2437,-0.2456,-0.2458,-0.2488,-0.2531,-0.2504,-0.2555,-0.2557,-0.2588,-0.2645,-0.2688,-0.2665,-0.2544,-0.2718,-0.2722,-0.263,-0.2489,-0.2345,-0.2319,-0.2611,-0.2611,-0.2611,-0.2398,0,-0.2317,-0.2341,-0.2358,-0.2388,-0.2417,-0.2447,-0.2465,-0.2492,-0.2511,-0.2546,-0.254,-0.2593,-0.2579,-0.2614,-0.2583,-0.2602,-0.253,-0.2593,-0.2602,-0.26,-0.2488,-0.2309,-0.2245,-0.2043,-0.2389,-0.2387,-0.2386,0,-0.2279,-0.2321,-0.2355,-0.2425,-0.2438,-0.2455,-0.2527,-0.254,-0.2578,-0.2591,-0.2614,-0.2645,-0.262,-0.2617,-0.2541,-0.2595,-0.2532,-0.2497,-0.2489,-0.2446,-0.244,-0.2221,-0.2012,-0.2021,-0.2371,-0.2372,-0.2373,0,-0.2268,-0.2314,-0.2358,-0.2379,-0.2453,-0.2477,-0.2508,-0.256,-0.2575,-0.2634,-0.2645,-0.2656,-0.2631,-0.2597,-0.2475,-0.2538,-0.2358,-0.2437,-0.222,-0.2206,-0.2205,-0.2191,-0.2028,-0.2362,-0.2362,-0.2363,-0.2363,0,-0.2243,-0.2274,-0.2364,-0.2393,-0.2457,-0.2501,-0.255,-0.2587,-0.2623,-0.2616,-0.2678,-0.265,-0.2633,-0.2529,-0.2464,-0.2255,-0.2328,-0.2178,-0.2148,-0.2117,-0.2099,-0.2159,-0.2223,-0.2355,-0.2357,-0.2358,-0.236,0,-0.2208,-0.2255,-0.2327,-0.2427,-0.2452,-0.2504,-0.2547,-0.2542,-0.2617,-0.2608,-0.2617,-0.2606,-0.2461,-0.2375,-0.2255,-0.218,-0.2001,-0.1953,-0.1856,-0.1818,-0.167,-0.1727,-0.1595,-0.1541,-0.1711,-0.1706,-0.1702,0,-0.2183,-0.2221,-0.2354,-0.2361,-0.2396,-0.246,-0.2447,-0.2526,-0.2502,-0.2541,-0.2492,-0.2404,-0.2269,-0.2013,-0.1881,-0.1685,-0.1753,-0.1525,-0.164,-0.1604,-0.1648,-0.1719,-0.1691,-0.1508,-0.1503,-0.1499,-0.1495,0,-0.2136,-0.2194,-0.2246,-0.2283,-0.2288,-0.2313,-0.2311,-0.2318,-0.2356,-0.236,-0.2276,-0.2196,-0.1957,-0.1729,-0.1491,-0.1392,-0.1524,-0.1428,-0.146,-0.1513,-0.1521,-0.1473,-0.1651,-0.1457,-0.1461,-0.1464,-0.1466,-0.1467,-0.2074,-0.2098,-0.213,-0.2154,-0.2153,-0.2114,-0.209,-0.2081,-0.2061,-0.202,-0.2013,-0.1856,-0.1685,-0.1354,-0.1229,-0.1075,-0.1182,-0.1092,-0.1159,-0.1229,-0.1199,-0.1222,-0.0971,-0.0972,-0.0973,-0.0973,-0.0974,0,-0.1941,-0.1941,-0.1954,-0.1959,-0.1887,-0.1945,-0.1918,-0.1864,-0.1798,-0.1747,-0.1665,-0.1471,-0.1262,-0.113,-0.0962,-0.0877,-0.0901,-0.0861,-0.101,-0.0993,-0.1057,-0.1073,-0.0751,-0.0751,-0.0751,-0.0751,-0.0751,-0.0751,-0.1846,-0.1786,-0.1802,-0.1664,-0.1657,-0.1531,-0.1504,-0.1486,-0.1437,-0.1288,-0.1169,-0.1053,-0.1007,-0.1069,-0.0945,-0.0868,-0.0897,-0.0837,-0.0865,-0.1002,-0.1033,-0.1062,-0.109,-0.0777,-0.0777,-0.0782,-0.0782,-0.0782]},{"header":{"parameterUnit":"m.s-1","parameterCategory":2,"la1":30.2991,"la2":30.254,"lo1":-89.0895,"lo2":-89.0444,"dy":0.0017,"dx":0.0017,"nx":28,"ny":28,"refTime":"2025-05-31T09:00:00:Z","depth":"0","parameterNumber":3,"parameterNumberName":"V-component_of_CURRENTS"},"data":[0,0,0,0,0,0,0,0,0,0,0,0,0,0,0,0,0,0,0,0,0,0,0,0,0,0,0,0,0,0,0,0,0,0,0,0,0,0,0,0,0,0,0,0,0,0,0,0,0,0,0,0,0,0,0,0,0,0,-0.0656,-0.0655,0,-0.0511,-0.0508,-0.0506,-0.0346,-0.0344,-0.0343,-0.0342,-0.0001,0.0006,0.0014,0,0,0,0,0,0,0,0,0,0,0,0,0,-0.0661,-0.0662,-0.0656,-0.0655,-0.0654,-0.0511,-0.0508,-0.0505,-0.0346,-0.0344,-0.0343,-0.0341,-0.0004,0.0005,0.0014,0,0,0,0,0,0,0,0,0,0,0,0,0,-0.0593,-0.0662,-0.0656,-0.0564,-0.0555,-0.0512,-0.0508,-0.0505,-0.0347,-0.0344,-0.0342,-0.034,-0.0007,0.0004,0.0016,0.0042,0,0,0.0051,0.0056,0,0,0,0,0,0,0,0,-0.0597,-0.0592,-0.0579,-0.0571,-0.0561,-0.0452,-0.0385,-0.0315,-0.0347,-0.0416,-0.0341,-0.0339,-0.0142,-0.0119,-0.0086,0.0058,0.0073,0.0052,0.0059,0.0064,0.0067,0,0,0,0,0,0,0,-0.0602,-0.0597,-0.0589,-0.0578,-0.0567,-0.0485,-0.0473,-0.0371,-0.0282,-0.041,-0.04,-0.0399,-0.0134,-0.0098,-0.0077,0.0078,0.0051,0.0062,0.0069,0.0073,0.0284,0.0283,0,0,0,0,0,0,-0.0649,-0.0603,-0.0594,-0.0586,-0.0584,-0.0488,-0.0474,-0.0482,-0.0287,-0.026,-0.0401,-0.0393,-0.0119,-0.009,-0.0064,-0.0031,0.0064,0.0074,0.0081,0.0285,0.0284,0.0282,0,0,0,0,0,0,-0.065,-0.065,-0.06,-0.0597,-0.0586,-0.0492,-0.0501,-0.048,-0.0439,-0.0285,-0.0251,-0.0382,-0.0116,-0.008,0.0015,-0.0016,0.008,0.009,0.0287,0.0285,0.0283,0.0043,0,0,0,0,0,0,-0.065,-0.0651,-0.0662,-0.0601,-0.0588,-0.0575,-0.0503,-0.0479,-0.0447,-0.0433,-0.0258,-0.0224,-0.0111,-0.0003,0.0026,0.0002,0.0099,0.0289,0.0286,0.0284,0.0052,0.0033,0.0016,0,0,0,0,0,-0.0651,-0.067,-0.0663,-0.0662,-0.061,-0.0577,-0.0561,-0.0479,-0.0449,-0.0433,-0.033,-0.0229,0.0003,0.0004,0.004,0.0018,0.029,0.0287,0.0284,0.006,0.0037,0.0016,0,0,0,0,0,0,-0.0663,-0.0655,-0.0645,-0.0658,-0.0628,-0.0553,-0.0533,-0.0497,-0.0406,-0.0387,-0.0242,-0.0202,-0.0132,-0.0025,-0.0027,0.0072,0.0162,0.0165,-0.002,-0.0041,-0.0059,-0.011,0.0109,0,0,0,0,0,-0.0685,-0.0699,-0.0675,-0.0683,-0.0677,-0.0615,-0.0591,-0.0548,-0.0472,-0.0429,-0.0322,-0.0206,-0.012,-0.0057,0.0045,0.0102,0.0214,0.0112,0.0093,0.0077,0.006,0.0178,0.0169,0.0273,0.0273,0.0273,0,0,-0.0692,-0.0691,-0.0697,-0.0688,-0.0655,-0.0659,-0.0591,-0.0568,-0.0566,-0.0406,-0.0356,-0.0263,-0.0121,-0.0064,-0.0022,0.0026,0.011,0.0074,0.0058,0.005,0.0174,0.0164,0.0155,0.0271,0.0271,0.0271,0,0,-0.0719,-0.0719,-0.0742,-0.0732,-0.0714,-0.0684,-0.0692,-0.0638,-0.0603,-0.0556,-0.0459,-0.0403,-0.0239,-0.0176,-0.0115,-0.0171,0.0004,-0.0124,-0.0247,-0.0134,-0.0141,-0.0147,-0.0012,-0.0003,-0.0127,-0.0128,-0.0128,0,-0.0726,-0.0768,-0.0738,-0.0759,-0.0775,-0.0712,-0.0749,-0.0705,-0.0626,-0.0616,-0.0557,-0.04,-0.0301,-0.0256,-0.0292,-0.0217,-0.0103,-0.0184,-0.016,-0.0163,-0.0165,-0.0024,-0.0012,-0.0139,-0.0138,-0.0137,-0.0136,0,-0.0773,-0.081,-0.0822,-0.0846,-0.0849,-0.0867,-0.0839,-0.0826,-0.0789,-0.0743,-0.0693,-0.0573,-0.048,-0.0455,-0.0392,-0.0373,-0.0272,-0.0206,-0.0116,-0.019,-0.0036,-0.0019,-0.0156,-0.0152,-0.0149,-0.0146,0,0,-0.0791,-0.0851,-0.0856,-0.0913,-0.0912,-0.0932,-0.0942,-0.0947,-0.094,-0.0871,-0.0848,-0.0782,-0.072,-0.0653,-0.0569,-0.0499,-0.0439,-0.0381,-0.0369,-0.0266,-0.0154,-0.0124,-0.0099,-0.0357,-0.0356,-0.0355,-0.004,0,-0.0846,-0.0954,-0.0946,-0.1041,-0.1114,-0.1081,-0.1088,-0.1075,-0.1021,-0.0963,-0.0884,-0.08,-0.0787,-0.0731,-0.0684,-0.0462,-0.0405,-0.0528,-0.0079,-0.0066,-0.0046,-0.0084,-0.0043,0.0237,-0.0022,-0.0019,-0.0017,0,-0.0898,-0.0988,-0.1118,-0.1202,-0.1219,-0.1248,-0.1282,-0.1267,-0.1174,-0.111,-0.1049,-0.0924,-0.0837,-0.0789,-0.0528,-0.0593,-0.0431,-0.0276,-0.0257,-0.0137,-0.0005,0.0273,0.028,0.041,0.0011,0.0009,0.0007,0,-0.0994,-0.1097,-0.1232,-0.1265,-0.1333,-0.1378,-0.1387,-0.1335,-0.1276,-0.1187,-0.1081,-0.098,-0.0821,-0.0666,-0.0398,-0.0434,-0.0054,-0.0036,0.0133,0.0142,0.0308,0.0326,0.0474,0.0112,0.0112,0.0111,0.011,0,-0.1078,-0.1173,-0.1298,-0.1377,-0.1486,-0.1494,-0.1506,-0.1494,-0.1365,-0.1245,-0.1161,-0.0993,-0.0774,-0.0526,-0.0367,-0.0047,-0.0021,0.0104,0.0211,0.0226,0.0232,0.0462,0.0507,0.0123,0.012,0.0118,0.0116,0,-0.1149,-0.1222,-0.1387,-0.1518,-0.154,-0.1627,-0.1553,-0.1492,-0.1408,-0.1233,-0.1181,-0.0919,-0.0608,-0.0388,-0.003,0.0066,0.0434,0.0417,0.0417,0.0513,0.0716,0.0747,0.1041,0.1161,0.0644,0.0647,0.0649,0,-0.119,-0.1296,-0.1494,-0.1528,-0.1583,-0.1643,-0.1594,-0.1533,-0.1424,-0.1156,-0.1039,-0.0718,-0.0458,0.0036,0.0262,0.0551,0.0628,0.0741,0.0618,0.0719,0.0836,0.0849,0.0928,0.0781,0.0784,0.0787,0.0789,0,-0.126,-0.134,-0.1463,-0.156,-0.1577,-0.1574,-0.1525,-0.1454,-0.1296,-0.1115,-0.0805,-0.0586,-0.0136,0.022,0.0541,0.07,0.0836,0.0796,0.0928,0.095,0.0956,0.1128,0.0597,0.081,0.0808,0.0806,0.0805,0.0804,-0.1269,-0.1361,-0.1475,-0.1551,-0.1547,-0.1492,-0.1453,-0.1308,-0.1135,-0.082,-0.065,-0.0238,0.0146,0.0606,0.0779,0.1098,0.1054,0.1172,0.1212,0.1223,0.1275,0.0763,0.1057,0.1056,0.1056,0.1055,0.1055,0,-0.125,-0.1319,-0.1395,-0.148,-0.1437,-0.1454,-0.1347,-0.1233,-0.101,-0.0643,-0.0352,0.0212,0.0587,0.0927,0.1298,0.1483,0.1535,0.1589,0.1627,0.1697,0.1299,0.1234,0.1545,0.1544,0.1544,0.1544,0.1544,0.1544,-0.1226,-0.1287,-0.1347,-0.1329,-0.135,-0.127,-0.1215,-0.1032,-0.0776,-0.0215,0.0235,0.0557,0.0965,0.1436,0.1792,0.1846,0.2033,0.2027,0.2135,0.1837,0.18,0.1765,0.1713,0.2119,0.212,0.2535,0.2539,0.2542]}],[{"header":{"parameterUnit":"m.s-1","parameterCategory":2,"la1":30.2991,"la2":30.254,"lo1":-89.0895,"lo2":-89.0444,"dy":0.0017,"dx":0.0017,"nx":28,"ny":28,"refTime":"2025-05-31T09:00:00:Z","depth":"2","parameterNumber":2,"parameterNumberName":"U-component_of_CURRENTS"},"data":[0,0,0,0,0,0,0,0,0,0,0,0,0,0,0,0,0,0,0,0,0,0,0,0,0,0,0,0,0,0,0,0,0,0,0,0,0,0,0,0,0,0,0,0,0,0,0,0,0,0,0,0,0,0,0,0,0,0,-0.2397,-0.2398,0,-0.2439,-0.2439,-0.2439,-0.2453,-0.2453,-0.2454,-0.2454,-0.2601,-0.2604,-0.2608,0,0,0,0,0,0,0,0,0,0,0,0,0,-0.2305,-0.2306,-0.2397,-0.2398,-0.2399,-0.2439,-0.2439,-0.2439,-0.2453,-0.2453,-0.2454,-0.2454,-0.26,-0.2604,-0.2608,0,0,0,0,0,0,0,0,0,0,0,0,0,-0.2341,-0.2307,-0.2397,-0.2414,-0.2416,-0.2439,-0.2439,-0.2439,-0.2453,-0.2453,-0.2454,-0.2454,-0.2598,-0.2604,-0.2609,-0.2636,0,0,-0.2626,-0.2628,0,0,0,0,0,0,0,0,-0.2339,-0.2344,-0.241,-0.2413,-0.2416,-0.2445,-0.2461,-0.2512,-0.2453,-0.2434,-0.2454,-0.2454,-0.2561,-0.257,-0.2569,-0.2642,-0.2649,-0.2626,-0.263,-0.2632,-0.2634,0,0,0,0,0,0,0,-0.2337,-0.2342,-0.2409,-0.2412,-0.2415,-0.2412,-0.2417,-0.2469,-0.2493,-0.2436,-0.2438,-0.245,-0.2563,-0.2563,-0.2573,-0.2651,-0.2626,-0.2631,-0.2635,-0.2637,-0.2606,-0.2602,0,0,0,0,0,0,-0.2342,-0.234,-0.2407,-0.241,-0.2383,-0.2414,-0.2419,-0.2432,-0.2491,-0.2501,-0.245,-0.2451,-0.2554,-0.2566,-0.2578,-0.2563,-0.2632,-0.2637,-0.264,-0.261,-0.2605,-0.2601,0,0,0,0,0,0,-0.234,-0.2347,-0.2406,-0.238,-0.2388,-0.2416,-0.2429,-0.2432,-0.2439,-0.2501,-0.2512,-0.2455,-0.2554,-0.2571,-0.2596,-0.2571,-0.264,-0.2645,-0.2615,-0.2609,-0.2603,-0.2567,0,0,0,0,0,0,-0.2337,-0.2346,-0.2348,-0.238,-0.239,-0.2403,-0.2429,-0.2433,-0.2448,-0.245,-0.2509,-0.2522,-0.2556,-0.2587,-0.2601,-0.258,-0.2649,-0.262,-0.2612,-0.2605,-0.2573,-0.256,-0.2549,0,0,0,0,0,-0.2333,-0.2329,-0.2348,-0.2356,-0.2394,-0.2403,-0.2406,-0.2424,-0.2448,-0.2435,-0.2465,-0.2521,-0.2545,-0.259,-0.2607,-0.2587,-0.2624,-0.2614,-0.2605,-0.2578,-0.2563,-0.2549,0,0,0,0,0,0,-0.2288,-0.2332,-0.2353,-0.2363,-0.2378,-0.2407,-0.2401,-0.2426,-0.244,-0.2446,-0.2506,-0.2519,-0.2516,-0.2544,-0.259,-0.2538,-0.2579,-0.2573,-0.2552,-0.2538,-0.2526,-0.2548,-0.2654,0,0,0,0,0,-0.2282,-0.2292,-0.233,-0.2336,-0.2344,-0.2377,-0.2384,-0.2399,-0.2423,-0.2429,-0.2469,-0.2487,-0.2488,-0.2511,-0.2514,-0.2527,-0.2538,-0.2503,-0.2491,-0.2481,-0.2499,-0.2497,-0.2489,-0.257,-0.257,-0.257,0,0,-0.2268,-0.2294,-0.23,-0.2327,-0.2342,-0.2349,-0.238,-0.2386,-0.239,-0.2447,-0.2456,-0.2459,-0.2475,-0.2459,-0.2459,-0.2491,-0.2446,-0.247,-0.2463,-0.2486,-0.2487,-0.248,-0.2474,-0.2564,-0.2565,-0.2566,0,0,-0.2243,-0.2265,-0.2266,-0.2279,-0.2304,-0.2321,-0.2326,-0.2352,-0.2356,-0.2368,-0.2382,-0.237,-0.2403,-0.2392,-0.2397,-0.2321,-0.2374,-0.2305,-0.2293,-0.2289,-0.2285,-0.2281,-0.2231,-0.2224,-0.2311,-0.2311,-0.2311,0,-0.2227,-0.2239,-0.2263,-0.2267,-0.228,-0.2311,-0.2314,-0.2318,-0.2346,-0.2356,-0.2359,-0.2358,-0.2366,-0.2355,-0.2304,-0.2304,-0.2301,-0.2365,-0.2282,-0.2279,-0.2276,-0.2226,-0.2219,-0.2308,-0.2308,-0.2309,-0.2309,0,-0.2205,-0.2217,-0.2214,-0.2237,-0.2245,-0.2246,-0.227,-0.2272,-0.229,-0.2306,-0.2294,-0.2286,-0.2296,-0.2262,-0.2272,-0.2238,-0.2236,-0.2267,-0.2342,-0.2268,-0.2216,-0.221,-0.2304,-0.2305,-0.2306,-0.2307,0,0,-0.2169,-0.2197,-0.2196,-0.2208,-0.2233,-0.2238,-0.224,-0.2256,-0.2276,-0.2266,-0.2281,-0.2235,-0.2247,-0.2246,-0.2239,-0.2224,-0.2164,-0.2239,-0.2241,-0.2229,-0.2129,-0.2027,-0.201,-0.2203,-0.2203,-0.2202,-0.2084,0,-0.2148,-0.2152,-0.2173,-0.2177,-0.2183,-0.2213,-0.2222,-0.2239,-0.2254,-0.2268,-0.2251,-0.2254,-0.2237,-0.224,-0.2219,-0.2189,-0.2153,-0.2192,-0.2169,-0.2167,-0.2122,-0.2002,-0.1879,-0.1757,-0.2078,-0.2077,-0.2076,0,-0.212,-0.2131,-0.2131,-0.2167,-0.2174,-0.2179,-0.2213,-0.2225,-0.2251,-0.2269,-0.2275,-0.228,-0.2242,-0.2243,-0.2172,-0.2206,-0.216,-0.2129,-0.2125,-0.2053,-0.2054,-0.1888,-0.1733,-0.2065,-0.2066,-0.2067,-0.2067,0,-0.2081,-0.2102,-0.2103,-0.2112,-0.2153,-0.216,-0.2182,-0.2219,-0.2242,-0.2272,-0.2287,-0.2276,-0.2249,-0.222,-0.2143,-0.2169,-0.2059,-0.2092,-0.1947,-0.1939,-0.1839,-0.1822,-0.2037,-0.2037,-0.2038,-0.2038,-0.2038,0,-0.205,-0.2052,-0.2085,-0.2086,-0.2103,-0.2137,-0.2166,-0.2197,-0.2239,-0.2241,-0.2282,-0.2263,-0.2247,-0.2187,-0.214,-0.1998,-0.2054,-0.1916,-0.19,-0.181,-0.1792,-0.2087,-0.2095,-0.2033,-0.2034,-0.2035,-0.2036,0,-0.2006,-0.2026,-0.2033,-0.207,-0.2084,-0.2093,-0.2157,-0.2169,-0.2225,-0.2223,-0.2231,-0.2236,-0.2144,-0.2103,-0.2019,-0.1956,-0.1867,-0.1808,-0.1673,-0.1642,-0.1746,-0.1753,-0.1628,-0.1623,-0.162,-0.1616,-0.1614,0,-0.1983,-0.1981,-0.2015,-0.2014,-0.2026,-0.2057,-0.2073,-0.215,-0.2154,-0.218,-0.2148,-0.2097,-0.2002,-0.1847,-0.1743,-0.1617,-0.1723,-0.1446,-0.1467,-0.1707,-0.1704,-0.1716,-0.1727,-0.1295,-0.129,-0.1286,-0.1282,0,-0.1934,-0.1946,-0.1943,-0.1947,-0.1952,-0.1976,-0.1992,-0.2005,-0.2053,-0.2044,-0.1973,-0.1909,-0.1753,-0.1556,-0.1419,-0.1346,-0.1463,-0.1353,-0.1638,-0.1423,-0.1385,-0.1385,-0.1408,-0.1245,-0.1249,-0.1251,-0.1253,-0.1255,-0.1881,-0.1865,-0.1854,-0.1847,-0.1858,-0.1839,-0.1806,-0.1813,-0.1791,-0.1707,-0.1745,-0.1584,-0.1528,-0.1225,-0.1125,-0.105,-0.1153,-0.112,-0.1137,-0.1157,-0.1145,-0.1103,-0.0905,-0.0906,-0.0908,-0.0909,-0.091,0,-0.1781,-0.176,-0.1751,-0.1714,-0.167,-0.1723,-0.1697,-0.1614,-0.1505,-0.1461,-0.1368,-0.1166,-0.1021,-0.0979,-0.0788,-0.0734,-0.0764,-0.0715,-0.0778,-0.0814,-0.0846,-0.0824,-0.0495,-0.0494,-0.0492,-0.0492,0,0,-0.1715,-0.1649,-0.1636,-0.1515,-0.1496,-0.138,-0.1332,-0.1221,-0.1148,-0.0993,-0.0907,-0.0946,-0.0938,-0.073,-0.0666,-0.055,-0.0681,-0.0512,-0.0843,-0.0952,-0.0983,-0.1069,-0.1071,0,0,0,0,0]},{"header":{"parameterUnit":"m.s-1","parameterCategory":2,"la1":30.2991,"la2":30.254,"lo1":-89.0895,"lo2":-89.0444,"dy":0.0017,"dx":0.0017,"nx":28,"ny":28,"refTime":"2025-05-31T09:00:00:Z","depth":"2","parameterNumber":3,"parameterNumberName":"V-component_of_CURRENTS"},"data":[0,0,0,0,0,0,0,0,0,0,0,0,0,0,0,0,0,0,0,0,0,0,0,0,0,0,0,0,0,0,0,0,0,0,0,0,0,0,0,0,0,0,0,0,0,0,0,0,0,0,0,0,0,0,0,0,0,0,-0.0605,-0.0604,0,-0.0499,-0.0497,-0.0495,-0.041,-0.041,-0.0409,-0.0409,-0.0201,-0.0196,-0.019,0,0,0,0,0,0,0,0,0,0,0,0,0,-0.0598,-0.0599,-0.0605,-0.0604,-0.0603,-0.0499,-0.0497,-0.0495,-0.041,-0.041,-0.0409,-0.0409,-0.0202,-0.0196,-0.019,0,0,0,0,0,0,0,0,0,0,0,0,0,-0.0553,-0.06,-0.0605,-0.0552,-0.0547,-0.0499,-0.0497,-0.0494,-0.041,-0.041,-0.0409,-0.0409,-0.0204,-0.0197,-0.0189,-0.0152,0,0,-0.0165,-0.0162,0,0,0,0,0,0,0,0,-0.0556,-0.0553,-0.0561,-0.0556,-0.055,-0.0472,-0.0418,-0.0377,-0.0411,-0.0457,-0.0409,-0.0408,-0.0286,-0.0271,-0.0246,-0.0143,-0.0134,-0.0165,-0.016,-0.0156,-0.0154,0,0,0,0,0,0,0,-0.0559,-0.0556,-0.0557,-0.056,-0.0553,-0.0488,-0.0481,-0.0409,-0.037,-0.0453,-0.0447,-0.0444,-0.0281,-0.0254,-0.0241,-0.0131,-0.0165,-0.0158,-0.0153,-0.015,0.0026,0.0026,0,0,0,0,0,0,-0.0591,-0.056,-0.0561,-0.0555,-0.0557,-0.0489,-0.0482,-0.0493,-0.0372,-0.0356,-0.0445,-0.0441,-0.0268,-0.025,-0.0233,-0.0178,-0.0157,-0.0149,-0.0145,0.0026,0.0026,0.0026,0,0,0,0,0,0,-0.0592,-0.0593,-0.0565,-0.0558,-0.055,-0.0492,-0.0504,-0.0491,-0.0465,-0.0369,-0.0349,-0.0432,-0.0267,-0.0244,-0.0185,-0.0169,-0.0146,-0.0139,0.0026,0.0026,0.0026,-0.007,0,0,0,0,0,0,-0.0592,-0.0594,-0.0605,-0.0561,-0.0552,-0.0544,-0.0504,-0.049,-0.0466,-0.046,-0.0351,-0.0331,-0.0264,-0.0197,-0.0177,-0.0158,-0.0133,0.0026,0.0026,0.0026,-0.0067,-0.0074,-0.0079,0,0,0,0,0,-0.0592,-0.0611,-0.0607,-0.0606,-0.0573,-0.0545,-0.0534,-0.0485,-0.0467,-0.0458,-0.0396,-0.0335,-0.0182,-0.0192,-0.0168,-0.0146,0.0026,0.0026,0.0026,-0.0064,-0.0072,-0.0079,0,0,0,0,0,0,-0.0608,-0.0604,-0.0597,-0.0613,-0.0588,-0.0533,-0.0522,-0.0494,-0.0438,-0.0432,-0.0339,-0.0315,-0.0256,-0.0194,-0.0206,-0.0096,-0.0065,-0.0061,-0.0142,-0.0148,-0.0154,-0.0159,-0.0126,0,0,0,0,0,-0.0623,-0.0638,-0.0618,-0.0628,-0.0623,-0.0576,-0.0557,-0.053,-0.0481,-0.0456,-0.0384,-0.0306,-0.0236,-0.0191,-0.0122,-0.0064,-0.0009,-0.0033,-0.0039,-0.0045,-0.0033,0.004,0.0042,0.0026,0.0026,0.0026,0,0,-0.0631,-0.0631,-0.0638,-0.0632,-0.0608,-0.06,-0.0561,-0.0545,-0.0528,-0.0441,-0.0391,-0.0327,-0.0229,-0.0168,-0.0133,-0.0113,-0.0016,-0.0045,-0.005,-0.0035,0.0041,0.0042,0.0044,0.0026,0.0026,0.0026,0,0,-0.0651,-0.0659,-0.0676,-0.0665,-0.0648,-0.062,-0.0624,-0.058,-0.0549,-0.0509,-0.0438,-0.0371,-0.027,-0.0191,-0.0139,-0.0134,-0.0057,-0.0113,-0.0134,-0.0064,-0.0062,-0.006,-0.0012,-0.0004,-0.0108,-0.0108,-0.0108,0,-0.0658,-0.0683,-0.0672,-0.0681,-0.0671,-0.0637,-0.064,-0.0607,-0.0547,-0.0513,-0.0507,-0.0352,-0.0274,-0.0178,-0.0178,-0.0144,-0.0106,-0.0119,-0.0073,-0.0069,-0.0065,-0.0016,-0.0006,-0.0113,-0.0112,-0.0112,-0.0111,0,-0.0687,-0.0704,-0.0712,-0.0718,-0.0702,-0.0702,-0.0669,-0.0643,-0.0611,-0.0566,-0.0487,-0.0397,-0.0299,-0.0266,-0.0218,-0.0141,-0.0127,-0.01,-0.006,-0.0069,-0.0017,-0.0005,-0.0119,-0.0118,-0.0116,-0.0115,0,0,-0.0705,-0.073,-0.0732,-0.0735,-0.0724,-0.0709,-0.069,-0.0646,-0.0622,-0.0562,-0.0512,-0.04,-0.0356,-0.0294,-0.0224,-0.0158,-0.0105,-0.0125,-0.0119,-0.0087,0.0029,0.0044,0.0059,-0.0079,-0.0077,-0.0076,0.0044,0,-0.0727,-0.0757,-0.0758,-0.0765,-0.0771,-0.0738,-0.0722,-0.0676,-0.0632,-0.0579,-0.0481,-0.0417,-0.0366,-0.0329,-0.0256,-0.0136,-0.0075,-0.0141,0.0043,0.0049,0.0057,0.0074,0.006,0.0167,0.0056,0.0058,0.0059,0,-0.0755,-0.0767,-0.0792,-0.0787,-0.0786,-0.0784,-0.0738,-0.072,-0.0644,-0.0616,-0.0537,-0.0467,-0.0351,-0.0327,-0.0131,-0.0182,-0.0085,-0.0001,0.0006,0.0069,0.0088,0.0166,0.0193,0.008,0.0078,0.0077,0.0075,0,-0.0769,-0.0785,-0.0804,-0.0805,-0.0799,-0.079,-0.0777,-0.0723,-0.0712,-0.0638,-0.0616,-0.0484,-0.0409,-0.0277,-0.0105,-0.012,0.0099,0.0106,0.0211,0.0212,0.0266,0.0269,0.0237,0.0237,0.0237,0.0237,0.0236,0,-0.0799,-0.0809,-0.0813,-0.0826,-0.0837,-0.0813,-0.0822,-0.0791,-0.0755,-0.0727,-0.0639,-0.0578,-0.0393,-0.0246,-0.0111,0.0091,0.01,0.022,0.0255,0.0229,0.0227,0.021,0.0205,0.0241,0.024,0.0239,0.0239,0,-0.0829,-0.0836,-0.0855,-0.0852,-0.0858,-0.0862,-0.0881,-0.0884,-0.084,-0.08,-0.078,-0.0631,-0.0435,-0.025,-0.001,0.0095,0.0275,0.0341,0.0286,0.0312,0.0337,0.0326,0.0467,0.0469,0.047,0.0472,0.0473,0,-0.0852,-0.0872,-0.0889,-0.0914,-0.0923,-0.0941,-0.0967,-0.0942,-0.0934,-0.0818,-0.0786,-0.06,-0.0451,-0.0116,0.0107,0.0343,0.0342,0.0452,0.0433,0.0346,0.0366,0.0352,0.0339,0.0459,0.046,0.0461,0.0461,0,-0.0896,-0.0907,-0.0927,-0.0979,-0.101,-0.104,-0.1049,-0.1052,-0.099,-0.0928,-0.078,-0.0651,-0.033,-0.0059,0.0227,0.0362,0.0408,0.0473,0.0433,0.0392,0.0346,0.0362,0.0349,0.0468,0.0467,0.0467,0.0466,0.0466,-0.093,-0.0959,-0.0997,-0.1037,-0.1077,-0.1096,-0.1101,-0.108,-0.1035,-0.0892,-0.0768,-0.0548,-0.0307,0.0114,0.0318,0.0503,0.0496,0.0543,0.0538,0.0533,0.0499,0.0458,0.0594,0.0594,0.0594,0.0594,0.0594,0,-0.096,-0.1001,-0.1055,-0.1093,-0.1131,-0.1137,-0.1127,-0.1092,-0.1004,-0.0867,-0.0705,-0.0407,-0.0119,0.0123,0.0421,0.0586,0.057,0.0612,0.056,0.0553,0.0548,0.0512,0.0611,0.0612,0.0612,0.0612,0,0,-0.0981,-0.1039,-0.1062,-0.1118,-0.1147,-0.1149,-0.1124,-0.1044,-0.0931,-0.0767,-0.0609,-0.0405,-0.011,0.0102,0.0321,0.0475,0.0466,0.0489,0.046,0.0367,0.0359,0.0497,0.0434,0,0,0,0,0]}],[{"header":{"parameterUnit":"m.s-1","parameterCategory":2,"la1":30.2991,"la2":30.254,"lo1":-89.0895,"lo2":-89.0444,"dy":0.0017,"dx":0.0017,"nx":28,"ny":28,"refTime":"2025-05-31T09:00:00:Z","depth":"4","parameterNumber":2,"parameterNumberName":"U-component_of_CURRENTS"},"data":[0,0,0,0,0,0,0,0,0,0,0,0,0,0,0,0,0,0,0,0,0,0,0,0,0,0,0,0,0,0,0,0,0,0,0,0,0,0,0,0,0,0,0,0,0,0,0,0,0,0,0,0,0,0,0,0,0,0,-0.1697,-0.1698,0,-0.1736,-0.1736,-0.1736,-0.1756,-0.1757,-0.1757,-0.1758,-0.1708,-0.1706,-0.1705,0,0,0,0,0,0,0,0,0,0,0,0,0,-0.1609,-0.1611,-0.1697,-0.1698,-0.1699,-0.1736,-0.1736,-0.1736,-0.1756,-0.1757,-0.1758,-0.1758,-0.1709,-0.1707,-0.1704,0,0,0,0,0,0,0,0,0,0,0,0,0,-0.1642,-0.1611,-0.1697,-0.1718,-0.1721,-0.1736,-0.1736,-0.1736,-0.1756,-0.1757,-0.1758,-0.1759,-0.171,-0.1707,-0.1704,-0.1669,0,0,-0.1696,-0.1694,0,0,0,0,0,0,0,0,-0.164,-0.1644,-0.1714,-0.1717,-0.172,-0.1747,-0.1687,-0.1711,-0.1756,-0.1737,-0.1758,-0.1759,-0.1716,-0.1713,-0.1711,-0.1667,-0.1665,-0.1695,-0.1694,-0.1692,-0.1692,0,0,0,0,0,0,0,-0.1638,-0.1643,-0.1707,-0.1715,-0.1719,-0.1715,-0.172,-0.1691,-0.1715,-0.1738,-0.1741,-0.1755,-0.1717,-0.1714,-0.171,-0.1664,-0.1695,-0.1693,-0.1691,-0.169,-0.163,-0.163,0,0,0,0,0,0,-0.1646,-0.1641,-0.1705,-0.1708,-0.1688,-0.1717,-0.1722,-0.1733,-0.1717,-0.1718,-0.1754,-0.1756,-0.1718,-0.1713,-0.1708,-0.1724,-0.1692,-0.169,-0.1688,-0.163,-0.163,-0.163,0,0,0,0,0,0,-0.1644,-0.1651,-0.1704,-0.168,-0.1687,-0.1718,-0.1729,-0.1733,-0.1764,-0.1731,-0.1729,-0.1785,-0.1719,-0.1712,-0.1702,-0.172,-0.1689,-0.1686,-0.163,-0.163,-0.163,-0.1719,0,0,0,0,0,0,-0.1641,-0.165,-0.1667,-0.1681,-0.1689,-0.1723,-0.1729,-0.1734,-0.1772,-0.1775,-0.1756,-0.1751,-0.1719,-0.1706,-0.1699,-0.1716,-0.1684,-0.163,-0.163,-0.163,-0.1716,-0.1722,-0.1727,0,0,0,0,0,-0.1637,-0.1646,-0.1667,-0.1676,-0.1709,-0.1724,-0.1728,-0.1748,-0.1773,-0.178,-0.1773,-0.1753,-0.1702,-0.1704,-0.1696,-0.1712,-0.163,-0.163,-0.163,-0.1713,-0.172,-0.1727,0,0,0,0,0,0,-0.1614,-0.165,-0.1673,-0.1694,-0.1718,-0.173,-0.1743,-0.1768,-0.1771,-0.1779,-0.1755,-0.1748,-0.1747,-0.1712,-0.1715,-0.1692,-0.1662,-0.1661,-0.1728,-0.1735,-0.174,-0.1726,-0.1682,0,0,0,0,0,-0.162,-0.164,-0.1672,-0.1692,-0.1706,-0.1735,-0.1751,-0.1769,-0.1774,-0.178,-0.1775,-0.1756,-0.1734,-0.1724,-0.1696,-0.1683,-0.165,-0.1686,-0.1691,-0.1697,-0.1678,-0.1673,-0.1677,-0.1631,-0.1631,-0.1631,0,0,-0.162,-0.1643,-0.1657,-0.169,-0.171,-0.1726,-0.1745,-0.1773,-0.179,-0.1769,-0.179,-0.178,-0.1736,-0.1725,-0.172,-0.1703,-0.1691,-0.1697,-0.1702,-0.1679,-0.1674,-0.1678,-0.1683,-0.1631,-0.1631,-0.1631,0,0,-0.1618,-0.1649,-0.1664,-0.1684,-0.1723,-0.1736,-0.1755,-0.1789,-0.1806,-0.1823,-0.1813,-0.1817,-0.179,-0.1765,-0.1745,-0.1761,-0.1727,-0.1759,-0.1773,-0.1771,-0.1775,-0.1778,-0.1742,-0.1741,-0.1758,-0.1758,-0.1758,0,-0.1622,-0.1643,-0.167,-0.1686,-0.1705,-0.1746,-0.1763,-0.178,-0.181,-0.1821,-0.1836,-0.1824,-0.1802,-0.1781,-0.1787,-0.1776,-0.1757,-0.1759,-0.1781,-0.1783,-0.1785,-0.1747,-0.1745,-0.1762,-0.1762,-0.1761,-0.1761,0,-0.1622,-0.165,-0.1658,-0.1693,-0.1713,-0.1733,-0.1764,-0.1792,-0.183,-0.1849,-0.1867,-0.1851,-0.1838,-0.1844,-0.1818,-0.1819,-0.1795,-0.1799,-0.1771,-0.1796,-0.1753,-0.175,-0.1768,-0.1767,-0.1766,-0.1764,0,0,-0.1601,-0.1651,-0.1658,-0.1677,-0.1721,-0.1734,-0.1762,-0.1791,-0.1816,-0.1853,-0.1875,-0.1864,-0.1878,-0.1854,-0.1844,-0.1842,-0.1847,-0.1827,-0.1825,-0.1801,-0.182,-0.1696,-0.168,-0.1869,-0.1869,-0.1869,-0.1786,0,-0.1599,-0.1627,-0.1653,-0.1684,-0.1698,-0.1739,-0.1761,-0.1794,-0.1826,-0.1855,-0.1863,-0.1877,-0.1875,-0.1884,-0.1882,-0.1855,-0.1841,-0.1867,-0.1787,-0.1784,-0.1681,-0.1673,-0.1868,-0.1783,-0.1782,-0.1781,-0.1781,0,-0.1587,-0.1608,-0.1635,-0.1682,-0.1694,-0.1718,-0.1761,-0.1786,-0.1825,-0.1855,-0.1877,-0.1888,-0.1882,-0.1891,-0.1853,-0.1874,-0.1843,-0.1825,-0.1822,-0.1666,-0.1652,-0.175,-0.1774,-0.1774,-0.1775,-0.1775,-0.1776,0,-0.1545,-0.1594,-0.1616,-0.1632,-0.1687,-0.171,-0.1741,-0.1787,-0.1815,-0.1854,-0.1877,-0.1884,-0.1882,-0.1868,-0.1827,-0.1847,-0.1778,-0.1802,-0.1654,-0.1644,-0.1746,-0.1744,-0.1767,-0.1767,-0.1768,-0.1768,-0.1768,0,-0.1513,-0.1537,-0.1603,-0.1612,-0.1646,-0.1689,-0.1731,-0.1766,-0.1816,-0.182,-0.1871,-0.1858,-0.188,-0.1846,-0.182,-0.1703,-0.1769,-0.1631,-0.1611,-0.1783,-0.1786,-0.1743,-0.1742,-0.1765,-0.1765,-0.1766,-0.1767,0,-0.146,-0.1505,-0.1538,-0.1602,-0.1627,-0.165,-0.1731,-0.1747,-0.1806,-0.1809,-0.1821,-0.1839,-0.1774,-0.1769,-0.172,-0.1663,-0.1593,-0.1538,-0.169,-0.1685,-0.1462,-0.1466,-0.1358,-0.1353,-0.1349,-0.1345,-0.1342,0,-0.1433,-0.1444,-0.1524,-0.1542,-0.1575,-0.1626,-0.1652,-0.1732,-0.1736,-0.1764,-0.1735,-0.1711,-0.1696,-0.1512,-0.1538,-0.1459,-0.1448,-0.1406,-0.1455,-0.1426,-0.1419,-0.143,-0.1439,-0.1335,-0.1334,-0.1333,-0.1331,0,-0.1375,-0.1418,-0.1437,-0.1478,-0.1511,-0.1545,-0.1579,-0.1577,-0.1623,-0.1704,-0.159,-0.1536,-0.1448,-0.1398,-0.1338,-0.1297,-0.1438,-0.1361,-0.137,-0.1416,-0.1397,-0.1396,-0.1411,-0.1316,-0.1318,-0.132,-0.1321,0,-0.1331,-0.1332,-0.1362,-0.138,-0.1428,-0.1411,-0.1458,-0.1426,-0.1444,-0.147,-0.142,-0.1387,-0.1406,-0.1308,-0.126,-0.1201,-0.119,-0.1166,-0.1186,-0.1204,-0.1194,-0.115,-0.0952,0,0,0,0,0,-0.1273,-0.1245,-0.1258,-0.1253,-0.1298,-0.1316,-0.1372,-0.1413,-0.1462,-0.1335,-0.1373,-0.1278,-0.1178,-0.118,-0.1083,-0.1205,-0.1211,-0.109,-0.12,-0.1232,-0.125,-0.1255,0,0,0,0,0,0,-0.1221,-0.1228,-0.1212,-0.1139,-0.1113,-0.1134,-0.1162,-0.1201,-0.1142,-0.1198,-0.1147,-0.1195,-0.1123,-0.1192,-0.1048,-0.105,-0.1092,-0.1094,-0.109,-0.1222,-0.1238,-0.1252,-0.1264,0,0,0,0,0]},{"header":{"parameterUnit":"m.s-1","parameterCategory":2,"la1":30.2991,"la2":30.254,"lo1":-89.0895,"lo2":-89.0444,"dy":0.0017,"dx":0.0017,"nx":28,"ny":28,"refTime":"2025-05-31T09:00:00:Z","depth":"4","parameterNumber":3,"parameterNumberName":"V-component_of_CURRENTS"},"data":[0,0,0,0,0,0,0,0,0,0,0,0,0,0,0,0,0,0,0,0,0,0,0,0,0,0,0,0,0,0,0,0,0,0,0,0,0,0,0,0,0,0,0,0,0,0,0,0,0,0,0,0,0,0,0,0,0,0,-0.0459,-0.0459,0,-0.0405,-0.0405,-0.0404,-0.0368,-0.0368,-0.0368,-0.0368,-0.0325,-0.0324,-0.0322,0,0,0,0,0,0,0,0,0,0,0,0,0,-0.0434,-0.0435,-0.0459,-0.0459,-0.0459,-0.0406,-0.0405,-0.0404,-0.0368,-0.0368,-0.0368,-0.0368,-0.0325,-0.0324,-0.0322,0,0,0,0,0,0,0,0,0,0,0,0,0,-0.0416,-0.0435,-0.0459,-0.0437,-0.0435,-0.0406,-0.0405,-0.0403,-0.0368,-0.0368,-0.0368,-0.0368,-0.0326,-0.0324,-0.0322,-0.0309,0,0,-0.0316,-0.0316,0,0,0,0,0,0,0,0,-0.0417,-0.0417,-0.0441,-0.0438,-0.0436,-0.0396,-0.0379,-0.0373,-0.0368,-0.039,-0.0368,-0.0369,-0.0352,-0.0348,-0.0333,-0.0307,-0.0305,-0.0316,-0.0315,-0.0314,-0.0314,0,0,0,0,0,0,0,-0.0419,-0.0418,-0.0435,-0.044,-0.0437,-0.0396,-0.0394,-0.0377,-0.0369,-0.0388,-0.0386,-0.0385,-0.035,-0.0335,-0.0332,-0.0305,-0.0316,-0.0315,-0.0314,-0.0313,-0.0224,-0.0223,0,0,0,0,0,0,-0.0437,-0.042,-0.0437,-0.0434,-0.043,-0.0397,-0.0395,-0.0406,-0.0369,-0.0364,-0.0385,-0.0384,-0.0338,-0.0334,-0.033,-0.029,-0.0314,-0.0313,-0.0312,-0.0225,-0.0224,-0.0222,0,0,0,0,0,0,-0.0437,-0.0439,-0.0439,-0.0427,-0.0424,-0.0399,-0.0411,-0.0405,-0.0397,-0.0367,-0.0362,-0.0384,-0.0338,-0.0333,-0.0315,-0.0289,-0.0312,-0.031,-0.0227,-0.0225,-0.0223,-0.0224,0,0,0,0,0,0,-0.0436,-0.044,-0.0453,-0.0429,-0.0426,-0.043,-0.0411,-0.0404,-0.0397,-0.0395,-0.0364,-0.0359,-0.0337,-0.0318,-0.0313,-0.0287,-0.0309,-0.0228,-0.0226,-0.0224,-0.0226,-0.0223,-0.022,0,0,0,0,0,-0.0436,-0.0454,-0.0455,-0.0457,-0.0447,-0.0431,-0.0425,-0.0403,-0.0397,-0.0395,-0.037,-0.0361,-0.0298,-0.0316,-0.031,-0.0283,-0.023,-0.0227,-0.0224,-0.0227,-0.0223,-0.022,0,0,0,0,0,0,-0.0447,-0.0452,-0.0452,-0.0471,-0.0457,-0.0426,-0.0425,-0.041,-0.0387,-0.0391,-0.0357,-0.0351,-0.0317,-0.0304,-0.0324,-0.0248,-0.0257,-0.0253,-0.0261,-0.0257,-0.0255,-0.0258,-0.0307,0,0,0,0,0,-0.0459,-0.0477,-0.0466,-0.0481,-0.048,-0.0455,-0.0446,-0.0435,-0.0413,-0.0403,-0.0376,-0.0342,-0.0298,-0.0286,-0.0252,-0.0227,-0.0212,-0.02,-0.0197,-0.0195,-0.0192,-0.0136,-0.0128,-0.0213,-0.0213,-0.0213,0,0,-0.0468,-0.0473,-0.0482,-0.0485,-0.0474,-0.0464,-0.0449,-0.0447,-0.0427,-0.0403,-0.0372,-0.0336,-0.0289,-0.0246,-0.0229,-0.0237,-0.0167,-0.0191,-0.019,-0.0188,-0.0132,-0.0124,-0.0117,-0.0211,-0.0212,-0.0212,0,0,-0.0482,-0.05,-0.0513,-0.0506,-0.0501,-0.0483,-0.0486,-0.0462,-0.0442,-0.042,-0.0374,-0.0324,-0.0289,-0.0224,-0.0192,-0.0155,-0.0151,-0.0149,-0.0141,-0.0087,-0.008,-0.0073,-0.0067,-0.006,-0.0151,-0.0151,-0.0151,0,-0.049,-0.0505,-0.0511,-0.0513,-0.0503,-0.0493,-0.0486,-0.0465,-0.0432,-0.0405,-0.0417,-0.0308,-0.0267,-0.0178,-0.0157,-0.0146,-0.0141,-0.0162,-0.0084,-0.0077,-0.007,-0.0065,-0.0057,-0.0151,-0.0151,-0.0151,-0.0151,0,-0.0502,-0.0514,-0.052,-0.0519,-0.0508,-0.0506,-0.0481,-0.0464,-0.0448,-0.0415,-0.0347,-0.029,-0.0223,-0.019,-0.0165,-0.008,-0.0103,-0.0087,-0.0099,-0.0062,-0.0059,-0.0051,-0.015,-0.015,-0.015,-0.015,0,0,-0.0515,-0.0526,-0.0528,-0.0525,-0.0511,-0.0503,-0.0474,-0.0431,-0.0413,-0.0371,-0.033,-0.0225,-0.02,-0.016,-0.0111,-0.0058,-0.0002,-0.006,-0.0058,-0.0065,0.0073,0.0054,0.006,0.0017,0.0019,0.0021,0.0046,0,-0.0516,-0.0523,-0.0523,-0.0514,-0.0508,-0.0488,-0.0465,-0.0428,-0.04,-0.0365,-0.0284,-0.0238,-0.0188,-0.0168,-0.0097,-0.0029,0.0023,-0.0013,0.0048,0.005,0.0021,0.0072,0.0028,0.0053,0.0054,0.0056,0.0057,0,-0.0521,-0.0521,-0.0519,-0.0508,-0.0506,-0.0501,-0.0462,-0.0443,-0.0386,-0.037,-0.0303,-0.0264,-0.0163,-0.0146,-0.0004,-0.004,0.0022,0.007,0.0072,0.0063,0.0048,0.0018,0.0072,0.0071,0.007,0.0069,0.0068,0,-0.0516,-0.0515,-0.0513,-0.0509,-0.0499,-0.049,-0.0482,-0.0439,-0.0437,-0.038,-0.0385,-0.0266,-0.0233,-0.0123,-0.0018,-0.0017,0.0106,0.0123,0.0167,0.0163,0.0169,0.0162,0.0233,0.0233,0.0232,0.0232,0.0232,0,-0.051,-0.0511,-0.0519,-0.0519,-0.0527,-0.0506,-0.0517,-0.0492,-0.0477,-0.0474,-0.0396,-0.0374,-0.0227,-0.0144,-0.0037,0.0079,0.0098,0.0177,0.0185,0.0164,0.0157,0.0173,0.0166,0.0233,0.0233,0.0233,0.0233,0,-0.0513,-0.0516,-0.0524,-0.0524,-0.0533,-0.0542,-0.0578,-0.0591,-0.0564,-0.0563,-0.0555,-0.0461,-0.0343,-0.0209,-0.0042,0.004,0.016,0.02,0.0131,0.0133,0.0178,0.0171,0.0249,0.0249,0.0249,0.0249,0.0249,0,-0.0515,-0.0521,-0.0549,-0.058,-0.0591,-0.0616,-0.0652,-0.0642,-0.0654,-0.0608,-0.0608,-0.0508,-0.0424,-0.0217,-0.0067,0.0118,0.016,0.0196,0.0238,0.0189,0.0188,0.0181,0.0174,0.0248,0.0248,0.0248,0.0248,0,-0.0527,-0.055,-0.0567,-0.0629,-0.0675,-0.0717,-0.0749,-0.0761,-0.0737,-0.0728,-0.0638,-0.0519,-0.039,-0.0212,-0.0079,0.0065,0.016,0.0196,0.0198,0.0238,0.0189,0.0187,0.018,0.0248,0.0248,0.0248,0.0248,0,-0.0556,-0.0583,-0.0627,-0.0674,-0.0742,-0.078,-0.0791,-0.0786,-0.0784,-0.0711,-0.0683,-0.0527,-0.0436,-0.0241,-0.0112,0.0017,0.0066,0.0109,0.0116,0.0118,0.0083,0.0001,0.002,0,0,0,0,0,-0.0577,-0.0618,-0.0674,-0.0725,-0.0791,-0.0816,-0.0846,-0.0844,-0.0815,-0.0757,-0.071,-0.0578,-0.0364,-0.0274,-0.0143,-0.0115,0.0074,0.0039,0.0123,0.0246,0.0247,0.0228,0,0,0,0,0,0,-0.0599,-0.0659,-0.0676,-0.0754,-0.0795,-0.0858,-0.0867,-0.0846,-0.0795,-0.0746,-0.0628,-0.0562,-0.0354,-0.0437,-0.0145,-0.0107,-0.004,0.014,0.0142,0.0246,0.0246,0.0247,0.0228,0,0,0,0,0]}]]